Franklin, PA

6:43 AM EST on December 13, 2019 (GMT -0500)
Venango Regional

Weather History for KFKL - November, 2019

Change the Weather History Date:

Thursday, November 14, 2019

  Actual Average Record
Temperature  
Mean Temperature 30 °F -  
Max Temperature 36 °F 46 °F 70 °F (1989)
Min Temperature 23 °F 30 °F 14 °F (1986)
Degree Days  
Heating Degree Days 36    
Moisture  
Dew Point 20 °F    
Average Humidity 67    
Maximum Humidity 78    
Minimum Humidity 54    
Precipitation  
Precipitation 0.00 in - - ()
Sea Level Pressure  
Sea Level Pressure 30.25 in    
Wind  
Wind Speed 7 mph (SW)    
Max Wind Speed 13 mph    
Max Gust Speed 18 mph    
Visibility 10 miles    
Events Snow    
Averages and records for this station are not official NWS values.
T = Trace of Precipitation, MM = Missing Value Source: NWS Daily Summary

Daily Weather History Graph

Daily Weather History Graph

Search for Another Location

Airport or City:

Astronomy

Nov. 14, 2019 Rise Set
Actual Time 7:06 AM EST 5:00 PM EST
Civil Twilight 6:36 AM EST 5:30 PM EST
Nautical Twilight 6:03 AM EST 6:03 PM EST
Astronomical Twilight 5:30 AM EST 6:36 PM EST
Moon 6:44 PM EST (11/14) 9:00 AM EST (11/14)
Length of Visible Light 10h 53m
Length of Day
9h 54m
Waning Gibbous, 95% of the Moon is Illuminated
Nov 14
Waning Gibbous
Nov 19
Last Quarter
Nov 26
New
Dec 4
First Quarter
Dec 12
Full

Hourly Weather History & Observations

Time (EST) Temp. Windchill Dew Point Humidity Pressure Visibility Wind Dir Wind Speed Gust Speed Precip Events Conditions
12:56 AM 23.0 °F 14.7 °F 15.1 °F 72% 30.24 in 10.0 mi South 6.9 mph - N/A   Overcast
1:56 AM 24.1 °F 15.2 °F 15.1 °F 69% 30.23 in 10.0 mi South 8.1 mph - N/A   Overcast
2:56 AM 24.1 °F 17.0 °F 16.0 °F 71% 30.24 in 10.0 mi South 5.8 mph - N/A   Overcast
3:56 AM 24.1 °F 18.2 °F 17.1 °F 75% 30.22 in 10.0 mi SSW 4.6 mph - N/A   Overcast
4:56 AM 25.0 °F 18.1 °F 18.0 °F 75% 30.23 in 10.0 mi SSW 5.8 mph - N/A   Overcast
5:56 AM 25.0 °F 16.3 °F 19.0 °F 78% 30.24 in 8.0 mi SSW 8.1 mph - 0.00 in Snow Light Snow
6:56 AM 25.0 °F 19.3 °F 19.0 °F 78% 30.25 in 10.0 mi SSW 4.6 mph - 0.00 in   Overcast
7:56 AM 26.1 °F 17.6 °F 19.0 °F 75% 30.24 in 10.0 mi South 8.1 mph - N/A   Overcast
8:56 AM 26.1 °F 16.8 °F 19.0 °F 75% 30.25 in 10.0 mi SSW 9.2 mph - N/A   Mostly Cloudy
9:56 AM 30.0 °F 21.1 °F 21.9 °F 72% 30.25 in 10.0 mi South 10.4 mph - N/A   Overcast
10:56 AM 30.9 °F 21.2 °F 21.0 °F 67% 30.26 in 10.0 mi SW 12.7 mph 18.4 mph N/A   Overcast
11:56 AM 32.0 °F 23.6 °F 21.9 °F 66% 30.24 in 10.0 mi SSW 10.4 mph - N/A   Mostly Cloudy
12:56 PM 34.0 °F 25.0 °F 23.0 °F 64% 30.23 in 10.0 mi SSW 12.7 mph - N/A   Mostly Cloudy
1:56 PM 35.1 °F 27.4 °F 19.9 °F 54% 30.22 in 10.0 mi SW 10.4 mph 17.3 mph N/A   Scattered Clouds
2:56 PM 36.0 °F 29.0 °F 21.0 °F 55% 30.22 in 10.0 mi SW 9.2 mph - N/A   Clear
3:56 PM 36.0 °F 29.0 °F 21.0 °F 55% 30.23 in 10.0 mi SW 9.2 mph - N/A   Clear
4:56 PM 34.0 °F 29.8 °F 21.0 °F 59% 30.24 in 10.0 mi SW 4.6 mph - N/A   Partly Cloudy
5:56 PM 34.0 °F 31.0 °F 21.9 °F 61% 30.26 in 10.0 mi WSW 3.5 mph - N/A   Overcast
6:56 PM 34.0 °F 31.0 °F 21.9 °F 61% 30.27 in 10.0 mi WSW 3.5 mph - N/A   Overcast
7:56 PM 34.0 °F 28.8 °F 21.9 °F 61% 30.27 in 10.0 mi SW 5.8 mph - N/A   Overcast
8:56 PM 34.0 °F 27.2 °F 21.9 °F 61% 30.27 in 10.0 mi WSW 8.1 mph - N/A   Overcast
9:56 PM 34.0 °F 28.0 °F 21.9 °F 61% 30.27 in 10.0 mi WSW 6.9 mph - N/A   Overcast
10:56 PM 30.9 °F 26.2 °F 23.0 °F 72% 30.28 in 10.0 mi WSW 4.6 mph - N/A   Partly Cloudy
11:56 PM 30.9 °F 25.2 °F 23.0 °F 72% 30.26 in 10.0 mi WSW 5.8 mph - N/A   Clear